Location: Jonen
(52.7189°N, 6.0177°E)
Time: 14:01:36
(UTC+00:00)

Cosmos 1943 Rocket - Pass Details

Date: 13 December 2025
Orbit: 809 x 844 km, 71.0° (Epoch: 22 April)

Event Time Altitude Azimuth Distance (km) Brightness Sun altitude
Rises 17:59:02 0° 323° (NW) 3,346 5.7 -22.5°
Reaches altitude 10° 18:02:40 10° 347° (NNW) 2,409 4.6 -23.1°
Enters shadow 18:04:46 14° 9° (N) 2,124 4.1 -23.4°
